Location: Unspecified
(0.0000°N, 0.0000°E)
Time: 05:22:52
(UTC+00:00)

deb Delta 104 - Pass Details

Date: 15 March 2026
Orbit: 1403 x 1485 km, 102.0° (Epoch: 15 April)

Event Time Altitude Azimuth Distance (km) Brightness Sun altitude
Rises 18:36:24 0° 169° (S) 4,497 ? -6.9°
Reaches altitude 10° 18:39:09 10° 170° (S) 3,528 ? -7.6°
Maximum altitude 18:47:20 73° 254° (WSW) 1,500 ? -9.6°
Drops below altitude 10° 18:55:39 10° 337° (NNW) 3,578 ? -11.7°
Sets 18:58:28 0° 340° (NNW) 4,564 ? -12.4°
